Зашеек

Россия / Мурманская область     67°24′08″N   32°32′55″E
темп.,
°C
ветер,
м/с
пор.,
м/с
влажн.,
%
обл.,
%
осадки,
мм/ч
давл.,
гПа
погр.,
м
23 июня, ср
ср2300:00+13зсз4797100 3.9 1012233
03:00+11ссз499299 4.0 1016320
06:00+11ссв41086100 0.0 1018645
09:00+11ссв7976100 0.0 1020607
12:00+12св677099 0.0 1021569
15:00+11св5774100 0.0 1021290
18:00+12св3575100 0.0 1020263
21:00+11св2577100 0.0 1019142
24 июня, чт
чт2400:00+11всв3781100 0.1 1019224
03:00+10в4883100 0.3 1018292
06:00+9в3690100 1.1 1017245
09:00+8в4698100 8.1 1016263
12:00+9в2294100 2.9 1017251
15:00+11ссв238690 3.0 1017499
18:00+11юв018794 0.0 1017170
21:00+11в118751 0.0 1018236
25 июня, пт
пт2500:00+9вюв229395 0.0 101850
03:00+9вюв129389 0.0 101976
06:00+10ююв239299 0.1 1019228
09:00+11ююв238598 0.1 1018365
12:00+13ююз457792 0.0 1018609
15:00+14ююз357254 0.1 1018618
18:00+15ю4570100 0.0 1017476
21:00+13ю258599 0.1 1016192
26 июня, сб
сб2600:00+11ю1293100 0.3 101641
03:00+11вюв1197100 1.5 101757
06:00+10всв4797100 0.8 1017306
09:00+9св5994100 1.9 1017431
12:00+8ссв5995100 3.7 1018324
15:00+8св3796100 8.8 1018260
18:00+10св359073 0.9 1018348
21:00+9св369289 0.9 1018264
27 июня, вс
вс2700:00+8всв3594100 0.1 1018207
03:00+8в2494100 0.3 1018210
06:00+8в3594100 0.1 1019229
09:00+10вюв1289100 0.1 1019222
12:00+11юв1291100 0.3 1018143
15:00+12в128850 0.8 1019233
18:00+13св1182100 0.0 1018194
21:00+13юв118616 0.0 101949